Regional Weather Roundup
Issued by NWS

Home | Current Version | Previous Version | Graphics & Text | Print | Product List | Glossary On
Versions: 1 2 3 4 5 6 7 8 9 10 11 12 13 14 15 16 17 18 19 20 21 22 23 24 25 26 27 28 29 30 31 32 33 34 35 36 37 38 39 40 41 42 43 44 45 46 47 48 49 50
000
ASUS45 KTFX 201904
RWRMT
MONTANA HOURLY WEATHER ROUNDUP
NATIONAL WEATHER SERVICE GREAT FALLS MT
1204 PM MST SAT DEC 20 2014

NOTE: "FAIR" INDICATES FEW OR NO CLOUDS BELOW 12000 FEET WITH NO
SIGNIFICANT WEATHER AND/OR OBSTRUCTIONS TO VISIBILITY.

* THESE STATIONS ARE NOT UNDER NWS QUALITY CONTROL. THEY DO NOT
   REPORT WEATHER SUCH AS PRECIPITATION OR FOG.

MTZ001>007-043-202000-
WEST OF THE DIVIDE
CITY           SKY/WX    TMP DP  RH WIND       PRES   REMARKS
KALISPELL      CLOUDY    34  30  85 NW3       29.86F
MISSOULA       FOG       28  28 100 CALM      29.90F
BUTTE          CLOUDY    27  19  72 CALM      29.89F
MULLAN PASS    LGT SNOW  28  25  89 VRB3      29.76F VSB M1/4
* ESSEX        N/A       31  29  92 N/A        N/A
* LINCOLN      N/A       28  22  78 E2         N/A
* LOOKOUT PASS N/A       29  29 100 S6         N/A   WCI  23
* POLSON       N/A       33  31  92 E1G6       N/A
* RONAN APT    PTSUNNY   32  30  92 N/A        N/A
* SEELEY LAKE  N/A       26  22  85 N/A        N/A
* THOMP F APT  CLOUDY    27  25  92 S2         N/A
$$

MTZ008-052>055-202000-
SOUTHWEST MONTANA
CITY           SKY/WX    TMP DP  RH WIND       PRES   REMARKS
BOZEMAN        CLOUDY    34  25  70 CALM      29.92F
DILLON         CLOUDY    36  25  64 NE6       29.91F WCI  31
* W YELLOWSTON CLOUDY    30  25  82 SW2G10     N/A
* THREE FORKS  CLOUDY    34  34 100 N/A        N/A
* BOULDER HILL N/A       27  18  69 SW9        N/A   WCI  18
* MONIDA PASS  N/A       25  25 100 SE9        N/A   WCI  16
* RAYNOLDS PAS N/A       29  14  53 SE6        N/A   WCI  23
* WHITEHALL    N/A       34  23  64 W3         N/A
* WISE RIVER   N/A       24  20  85 N1         N/A
$$

MTZ009>010-012-014-046-048-049-054-202000-
EAST SLOPES AND CENTRAL MONTANA
CITY           SKY/WX    TMP DP  RH WIND       PRES   REMARKS
CUT BANK       CLOUDY    36  25  64 SW10      29.77F WCI  29
GREAT FALLS    CLOUDY    39  21  48 SW15G23   29.81F WCI  31
HELENA         CLOUDY    34  23  64 N3        29.88F
* DEARBORN     N/A       41  21  45 S10        N/A
* EAST GLACIER N/A       32  18  56 W31G38     N/A   WCI  17
* MONARCH      N/A       34  13  42 SW17G26    N/A   WCI  23
* PENDROY      N/A       36  15  42 N/A        N/A
* ROGERS PASS  N/A       29  19  66 NE2G9      N/A
* SWEET GRASS  N/A       34  22  61 SW17       N/A   WCI  23
$$

MTZ011-013-016-021-035-040-045-047-050-051-202000-
NORTH CENTRAL MONTANA
CITY           SKY/WX    TMP DP  RH WIND       PRES   REMARKS
HAVRE          PTSUNNY   37  25  62 SW16      29.80F WCI  28
LEWISTOWN      CLOUDY    41  21  45 SW8       29.83F
* N BAR RANCH  SUNNY     41   9  27 W12G17    29.84F
* CHESTER      N/A       29  22  75 S1         N/A
* DENTON       N/A       38  21  50 S7G14      N/A   WCI  33
* JUDITH GAP   N/A       38  18  44 SW20       N/A   WCI  28
* LOMA         N/A       40  24  53 SW4        N/A
$$

MTZ017>020-022>027-061-062-202000-
NORTHEAST MONTANA
CITY           SKY/WX    TMP DP  RH WIND       PRES   REMARKS
GLASGOW        PTCLDY    43  25  49 W17       29.79F
GLENDIVE       SUNNY     45  27  49 W12       29.85F
JORDAN         PTCLDY    45  23  42 W17       29.84F
SIDNEY         SUNNY     39  30  70 SW10      29.83F WCI  32
WOLF POINT     PTSUNNY   43  28  56 SW7       29.80F
* BEAVER HILL  N/A       42  28  58 SW14       N/A
* CIRCLE       N/A       43  30  60 W10        N/A
* LINDSAY DVD  N/A       41  26  55 W15G20     N/A
* NAVAJO       N/A       34  30  85 W17G22     N/A   WCI  23
* SACO         N/A       41  28  60 SW14G19    N/A
$$

MTZ028>042-056>058-202000-
SOUTHCENTRAL AND SOUTHEAST MONTANA
CITY           SKY/WX    TMP DP  RH WIND       PRES   REMARKS
BAKER          SUNNY     45  28  51 W13       29.86F
BILLINGS       PTSUNNY   36  23  59 SW13      29.90F WCI  27
LIVINGSTON     CLOUDY    43  21  42 W23G33    29.86F
MILES CITY     PTCLDY    45  28  51 SW10      29.87F
* LAUREL APT   PTSUNNY   36  18  48 N/A        N/A
* ROUNDUP APT  PTSUNNY   45  18  34 SW11G22    N/A
* ALZADA       N/A       44  27  51 SW10       N/A
* LAME DEER    N/A       38  24  57 NW5G12     N/A   WCI  34
* REED POINT   N/A       34  27  76 E4         N/A
* ROSCOE HILL  N/A       40  10  29 E4         N/A
$$

REGIONAL REPORTS...DAKOTAS
CITY           SKY/WX    TMP DP  RH WIND       PRES   REMARKS
WILLISTON      SUNNY     32  28  85 S8        29.80F WCI  25
DICKINSON      SUNNY     45  30  56 W14       29.81F
BEACH          SUNNY     41  28  60 W14       29.84F
CROSBY         PTCLDY    32  32 100 S9        29.78F WCI  24
WATFORD CITY   SUNNY     39  32  76 SW14      29.79F WCI  31
BISMARCK       CLOUDY    25  23  92 SE5       29.87F WCI  19
GRAND FORKS    FOG       28  27  96 S14       29.97F VSB 1    WCI  17
FARGO          FOG       32  28  85 S13       29.99F WCI  22
BUFFALO SD     SUNNY     48  28  46 NW18      29.80F
RAPID CITY     CLOUDY    48  28  46 N13       29.90F
$$

REGIONAL REPORTS...WYOMING/IDAHO/WASHINGTON
CITY           SKY/WX    TMP DP  RH WIND       PRES   REMARKS
GILLETTE       PTCLDY    43  27  53 SW8       29.92F
SHERIDAN       PTCLDY    43  25  49 CALM      29.89F
CODY           PTSUNNY   41  21  45 S8        29.90F
YELLOWSTONE LA PTSUNNY   27  21  78 VRB5      29.96F WCI  21
SALMON         PTSUNNY   28  28 100 CALM      29.95F
MULLAN PASS    LGT SNOW  28  25  89 VRB3      29.76S VSB M1/4
SAND POINT     CLOUDY    36  36 100 NE3       29.83F
SPOKANE        LGT RAIN  37  36  96 SE8       29.78F WCI  31

$$



USA.gov is the U.S. government's official web portal to all federal, state and local government web resources and services.